{"data":{"norad_id":59600,"epoch":"2026-09-17T02:19:17.052096Z","epoch_age_seconds":308389,"freshness":"STALE","line1":"1 59600U 24079C   26260.09672514  .00000007  00000+0  00000+0 0  9997","line2":"2 59600  55.1567  98.5081 0004623 108.0703 252.0500  1.70473691 14935","mean_motion":1.70473691,"eccentricity":0.0004623,"inclination_deg":55.1567,"raan_deg":98.5081,"arg_perigee_deg":108.0703,"mean_anomaly_deg":252.05,"bstar":0,"rev_number":1493,"period_min":844.70512227016,"perigee_km":23208.534582011,"apogee_km":23235.903071009,"semimajor_km":29600.35582651,"source":"CELESTRAK","updated_at":"2026-09-20T09:00:46.498735Z"}}